Time,TemperatureF,DewpointF,PressureIn,WindDirection,WindDirectionDegrees,WindSpeedMPH,WindSpeedGustMPH,Humidity,HourlyPrecipIn,Conditions,Clouds,dailyrainin,SoftwareType,DateUTC
2014-01-01 00:07:00,20.5,13.8,30.11,NE,45,6.5,8.5,75,0.00,,,0.00,WUHU216HW,2014-01-01 06:07:00,
2014-01-01 00:12:00,20.3,13.6,30.12,North,0,7.4,8.5,75,0.00,,,0.00,WUHU216HW,2014-01-01 06:12:00,
2014-01-01 00:14:00,20.3,13.3,30.12,North,0,4.0,8.3,74,0.00,,,0.00,WUHU216HW,2014-01-01 06:14:00,
2014-01-01 00:19:00,20.2,13.2,30.12,NE,45,6.7,7.4,74,0.00,,,0.00,WUHU216HW,2014-01-01 06:19:00,
2014-01-01 00:24:00,20.0,13.0,30.13,NE,45,2.0,6.9,74,0.00,,,0.00,WUHU216HW,2014-01-01 06:24:00,
2014-01-01 00:29:00,19.8,12.8,30.12,NNE,23,6.5,8.3,74,0.00,,,0.00,WUHU216HW,2014-01-01 06:29:00,
2014-01-01 00:34:00,19.6,12.9,30.12,North,0,4.0,8.3,75,0.00,,,0.00,WUHU216HW,2014-01-01 06:34:00,
2014-01-01 00:39:00,19.4,12.7,30.11,NNE,23,5.4,8.5,75,0.00,,,0.00,WUHU216HW,2014-01-01 06:39:00,
2014-01-01 00:44:00,19.1,12.3,30.11,NE,45,4.9,8.5,75,0.00,,,0.00,WUHU216HW,2014-01-01 06:44:00,
2014-01-01 00:49:00,18.9,12.5,30.10,ENE,68,5.8,7.6,76,0.00,,,0.00,WUHU216HW,2014-01-01 06:49:00,
2014-01-01 00:54:00,18.9,12.5,30.10,NE,45,4.7,7.6,76,0.00,,,0.00,WUHU216HW,2014-01-01 06:54:00,
2014-01-01 00:55:00,18.9,12.5,30.10,NE,45,4.7,7.6,76,0.00,,,0.00,WUHU216HW,2014-01-01 06:55:00,
2014-01-01 01:00:00,18.5,12.4,30.10,ENE,68,5.8,5.8,77,0.00,,,0.00,WUHU216HW,2014-01-01 07:00:00,
2014-01-01 01:05:00,18.5,12.4,30.10,ENE,68,5.8,5.8,77,0.00,,,0.00,WUHU216HW,2014-01-01 07:05:00,
2014-01-01 01:29:00,18.4,12.5,30.10,ENE,68,4.0,4.0,78,0.00,,,0.00,WUHU216HW,2014-01-01 07:29:00,
2014-01-01 01:34:00,18.4,12.5,30.10,ENE,68,4.0,4.0,78,0.00,,,0.00,WUHU216HW,2014-01-01 07:34:00,
2014-01-01 02:00:00,18.4,12.2,30.10,ENE,68,3.8,3.8,77,0.00,,,0.00,WUHU216HW,2014-01-01 08:00:00,
2014-01-01 02:05:00,18.4,12.2,30.10,ENE,68,3.8,3.8,77,0.00,,,0.00,WUHU216HW,2014-01-01 08:05:00,
2014-01-01 02:30:00,17.6,11.9,30.10,North,0,0.0,0.0,78,0.00,,,0.00,WUHU216HW,2014-01-01 08:30:00,
2014-01-01 02:35:00,17.6,11.9,30.10,North,0,0.0,0.0,78,0.00,,,0.00,WUHU216HW,2014-01-01 08:35:00,
2014-01-01 02:59:00,17.6,12.2,30.10,North,0,0.0,0.0,79,0.00,,,0.00,WUHU216HW,2014-01-01 08:59:00,
2014-01-01 03:04:00,17.6,12.2,30.10,North,0,0.0,0.0,79,0.00,,,0.00,WUHU216HW,2014-01-01 09:04:00,
2014-01-01 03:09:00,17.5,12.0,30.10,North,0,0.0,0.0,79,0.00,,,0.00,WUHU216HW,2014-01-01 09:09:00,
2014-01-01 03:14:00,17.5,12.0,30.09,North,0,0.0,0.0,79,0.00,,,0.00,WUHU216HW,2014-01-01 09:14:00,
2014-01-01 03:19:00,17.3,11.8,30.09,North,0,0.0,0.0,79,0.00,,,0.00,WUHU216HW,2014-01-01 09:19:00,
2014-01-01 03:24:00,17.3,11.8,30.09,North,0,0.0,0.0,79,0.00,,,0.00,WUHU216HW,2014-01-01 09:24:00,
2014-01-01 03:34:00,17.3,11.8,30.09,North,0,0.0,0.0,79,0.00,,,0.00,WUHU216HW,2014-01-01 09:34:00,
2014-01-01 03:39:00,17.3,11.8,30.08,North,0,0.0,5.1,79,0.00,,,0.00,WUHU216HW,2014-01-01 09:39:00,
2014-01-01 03:44:00,17.3,11.8,30.09,ENE,68,6.5,6.5,79,0.00,,,0.00,WUHU216HW,2014-01-01 09:44:00,
2014-01-01 03:49:00,17.3,11.8,30.08,North,0,0.0,6.5,79,0.00,,,0.00,WUHU216HW,2014-01-01 09:49:00,
2014-01-01 03:54:00,17.3,11.8,30.08,North,0,0.0,6.5,79,0.00,,,0.00,WUHU216HW,2014-01-01 09:54:00,
2014-01-01 03:59:00,17.3,11.8,30.08,North,0,0.0,0.0,79,0.00,,,0.00,WUHU216HW,2014-01-01 09:59:00,
2014-01-01 04:04:00,17.3,11.8,30.08,North,0,0.0,0.0,79,0.00,,,0.00,WUHU216HW,2014-01-01 10:04:00,
2014-01-01 04:09:00,17.1,11.6,30.08,North,0,0.0,0.0,79,0.00,,,0.00,WUHU216HW,2014-01-01 10:09:00,
2014-01-01 04:14:00,16.9,11.8,30.07,North,0,0.0,0.0,80,0.00,,,0.00,WUHU216HW,2014-01-01 10:14:00,
2014-01-01 04:19:00,16.9,11.8,30.07,North,0,0.0,0.0,80,0.00,,,0.00,WUHU216HW,2014-01-01 10:19:00,
2014-01-01 04:24:00,16.9,11.8,30.07,North,0,0.0,0.0,80,0.00,,,0.00,WUHU216HW,2014-01-01 10:24:00,
2014-01-01 04:29:00,16.9,11.8,30.08,North,0,0.0,0.0,80,0.00,,,0.00,WUHU216HW,2014-01-01 10:29:00,
2014-01-01 04:34:00,16.9,11.8,30.08,North,0,0.0,0.0,80,0.00,,,0.00,WUHU216HW,2014-01-01 10:34:00,
2014-01-01 04:39:00,16.9,11.5,30.08,North,0,0.0,0.0,79,0.00,,,0.00,WUHU216HW,2014-01-01 10:39:00,
2014-01-01 04:44:00,16.9,11.5,30.08,North,0,0.0,0.0,79,0.00,,,0.00,WUHU216HW,2014-01-01 10:44:00,
2014-01-01 04:49:00,16.9,11.8,30.08,North,0,0.0,0.0,80,0.00,,,0.00,WUHU216HW,2014-01-01 10:49:00,
2014-01-01 04:54:00,16.9,11.5,30.09,North,0,0.0,0.0,79,0.00,,,0.00,WUHU216HW,2014-01-01 10:54:00,
2014-01-01 04:59:00,16.9,11.5,30.08,North,0,0.0,0.0,79,0.00,,,0.00,WUHU216HW,2014-01-01 10:59:00,
2014-01-01 05:04:00,16.9,11.5,30.08,NE,45,4.9,4.9,79,0.00,,,0.00,WUHU216HW,2014-01-01 11:04:00,
2014-01-01 05:09:00,16.9,11.5,30.09,NE,45,4.0,5.8,79,0.00,,,0.00,WUHU216HW,2014-01-01 11:09:00,
2014-01-01 05:14:00,16.9,11.5,30.09,NE,45,4.9,6.5,79,0.00,,,0.00,WUHU216HW,2014-01-01 11:14:00,
2014-01-01 05:19:00,16.7,11.4,30.09,ENE,68,4.9,6.5,79,0.00,,,0.00,WUHU216HW,2014-01-01 11:19:00,
2014-01-01 05:24:00,16.7,11.4,30.09,NNE,23,7.4,8.3,79,0.00,,,0.00,WUHU216HW,2014-01-01 11:24:00,
2014-01-01 05:29:00,16.6,11.2,30.09,NNE,23,5.4,8.3,79,0.00,,,0.00,WUHU216HW,2014-01-01 11:29:00,
2014-01-01 05:34:00,16.6,11.4,30.08,ENE,68,8.3,8.3,80,0.00,,,0.00,WUHU216HW,2014-01-01 11:34:00,
2014-01-01 05:39:00,16.4,11.3,30.09,NE,45,5.6,8.3,80,0.00,,,0.00,WUHU216HW,2014-01-01 11:39:00,
2014-01-01 05:44:00,16.4,11.3,30.10,ENE,68,5.4,6.3,80,0.00,,,0.00,WUHU216HW,2014-01-01 11:44:00,
2014-01-01 05:49:00,16.6,11.4,30.11,NNE,23,4.9,6.9,80,0.00,,,0.00,WUHU216HW,2014-01-01 11:49:00,
2014-01-01 05:54:00,16.6,11.4,30.10,NE,45,8.7,9.2,80,0.00,,,0.00,WUHU216HW,2014-01-01 11:54:00,
2014-01-01 05:59:00,16.6,11.4,30.11,NE,45,5.4,9.2,80,0.00,,,0.00,WUHU216HW,2014-01-01 11:59:00,
2014-01-01 06:04:00,16.6,11.4,30.10,NNE,23,6.5,9.2,80,0.00,,,0.00,WUHU216HW,2014-01-01 12:04:00,
2014-01-01 06:09:00,16.4,11.0,30.11,NNE,23,6.3,10.5,79,0.00,,,0.00,WUHU216HW,2014-01-01 12:09:00,
2014-01-01 06:14:00,16.4,11.3,30.11,NNE,23,6.3,10.5,80,0.00,,,0.00,WUHU216HW,2014-01-01 12:14:00,
2014-01-01 06:19:00,16.4,11.3,30.11,NNE,23,12.1,12.1,80,0.00,,,0.00,WUHU216HW,2014-01-01 12:19:00,
2014-01-01 06:24:00,16.2,11.2,30.11,NNE,23,5.1,12.1,80,0.00,,,0.00,WUHU216HW,2014-01-01 12:24:00,
2014-01-01 06:29:00,16.4,11.0,30.10,NE,45,10.5,10.5,79,0.00,,,0.00,WUHU216HW,2014-01-01 12:29:00,
2014-01-01 06:34:00,16.4,11.3,30.10,North,0,8.5,10.5,80,0.00,,,0.00,WUHU216HW,2014-01-01 12:34:00,
2014-01-01 06:39:00,16.4,11.0,30.10,NE,45,6.0,9.2,79,0.00,,,0.00,WUHU216HW,2014-01-01 12:39:00,
2014-01-01 06:44:00,16.4,11.0,30.10,NE,45,7.2,10.5,79,0.00,,,0.00,WUHU216HW,2014-01-01 12:44:00,
2014-01-01 06:49:00,16.4,11.3,30.09,ENE,68,6.9,12.5,80,0.00,,,0.00,WUHU216HW,2014-01-01 12:49:00,
2014-01-01 07:00:00,16.4,11.3,30.10,NNE,23,8.3,12.5,80,0.00,,,0.00,WUHU216HW,2014-01-01 13:00:00,
2014-01-01 07:05:00,16.4,11.0,30.11,NNE,23,7.6,10.7,79,0.00,,,0.00,WUHU216HW,2014-01-01 13:05:00,
2014-01-01 07:10:00,16.4,11.0,30.12,NE,45,11.6,11.6,79,0.00,,,0.00,WUHU216HW,2014-01-01 13:10:00,
2014-01-01 07:15:00,16.4,11.0,30.13,NE,45,7.6,11.6,79,0.00,,,0.00,WUHU216HW,2014-01-01 13:15:00,
2014-01-01 07:20:00,16.4,11.0,30.13,North,0,4.0,7.6,79,0.00,,,0.00,WUHU216HW,2014-01-01 13:20:00,
2014-01-01 07:25:00,16.4,11.3,30.13,ENE,68,5.4,8.1,80,0.00,,,0.00,WUHU216HW,2014-01-01 13:25:00,
2014-01-01 07:30:00,16.4,11.3,30.14,NNE,23,5.4,8.1,80,0.00,,,0.00,WUHU216HW,2014-01-01 13:30:00,
2014-01-01 07:35:00,16.4,11.0,30.13,NNE,23,6.7,6.9,79,0.00,,,0.00,WUHU216HW,2014-01-01 13:35:00,
2014-01-01 07:40:00,16.2,10.8,30.13,NE,45,9.2,9.2,79,0.00,,,0.00,WUHU216HW,2014-01-01 13:40:00,
2014-01-01 07:45:00,16.2,10.8,30.13,NE,45,6.3,9.2,79,0.00,,,0.00,WUHU216HW,2014-01-01 13:45:00,
2014-01-01 07:50:00,16.2,10.8,30.14,NNE,23,9.2,9.6,79,0.00,,,0.00,WUHU216HW,2014-01-01 13:50:00,
2014-01-01 07:55:00,16.2,10.8,30.14,ENE,68,6.9,9.6,79,0.00,,,0.00,WUHU216HW,2014-01-01 13:55:00,
2014-01-01 08:00:00,16.0,10.6,30.14,East,90,4.7,11.4,79,0.00,,,0.00,WUHU216HW,2014-01-01 14:00:00,
2014-01-01 08:05:00,16.0,10.6,30.14,NNE,23,7.6,11.4,79,0.00,,,0.00,WUHU216HW,2014-01-01 14:05:00,
2014-01-01 08:10:00,15.8,10.5,30.15,NE,45,8.5,10.5,79,0.00,,,0.00,WUHU216HW,2014-01-01 14:10:00,
2014-01-01 08:15:00,15.8,10.5,30.15,North,0,8.5,12.1,79,0.00,,,0.00,WUHU216HW,2014-01-01 14:15:00,
2014-01-01 08:20:00,16.0,11.0,30.15,NNE,23,9.6,12.1,80,0.00,,,0.00,WUHU216HW,2014-01-01 14:20:00,
2014-01-01 08:25:00,15.8,10.5,30.15,North,0,6.3,16.3,79,0.00,,,0.00,WUHU216HW,2014-01-01 14:25:00,
2014-01-01 08:30:00,15.8,10.5,30.14,NE,45,7.6,16.3,79,0.00,,,0.00,WUHU216HW,2014-01-01 14:30:00,
2014-01-01 08:35:00,16.0,10.6,30.15,NE,45,6.5,11.9,79,0.00,,,0.00,WUHU216HW,2014-01-01 14:35:00,
2014-01-01 08:40:00,16.0,10.6,30.15,North,0,6.3,9.2,79,0.00,,,0.00,WUHU216HW,2014-01-01 14:40:00,
2014-01-01 08:45:00,16.2,10.8,30.16,NNE,23,8.5,9.2,79,0.00,,,0.00,WUHU216HW,2014-01-01 14:45:00,
2014-01-01 08:50:00,16.2,10.8,30.16,NE,45,8.3,11.4,79,0.00,,,0.00,WUHU216HW,2014-01-01 14:50:00,
2014-01-01 08:55:00,16.2,10.8,30.16,NE,45,5.8,11.4,79,0.00,,,0.00,WUHU216HW,2014-01-01 14:55:00,
2014-01-01 09:00:00,16.2,10.8,30.16,ENE,68,8.3,9.2,79,0.00,,,0.00,WUHU216HW,2014-01-01 15:00:00,
2014-01-01 09:05:00,16.2,10.8,30.16,NE,45,6.3,8.3,79,0.00,,,0.00,WUHU216HW,2014-01-01 15:05:00,
2014-01-01 09:10:00,16.4,11.0,30.16,East,90,3.8,9.2,79,0.00,,,0.00,WUHU216HW,2014-01-01 15:10:00,
2014-01-01 09:15:00,16.4,11.0,30.16,NE,45,6.3,11.2,79,0.00,,,0.00,WUHU216HW,2014-01-01 15:15:00,
2014-01-01 09:20:00,16.4,10.7,30.16,North,0,8.5,11.2,78,0.00,,,0.00,WUHU216HW,2014-01-01 15:20:00,
2014-01-01 09:25:00,16.6,11.2,30.17,NE,45,5.4,8.5,79,0.00,,,0.00,WUHU216HW,2014-01-01 15:25:00,
2014-01-01 09:30:00,16.6,11.2,30.17,NE,45,5.4,8.5,79,0.00,,,0.00,WUHU216HW,2014-01-01 15:30:00,
2014-01-01 09:52:00,17.5,11.4,30.17,ESE,113,6.3,6.3,77,0.00,,,0.00,WUHU216HW,2014-01-01 15:52:00,
2014-01-01 09:57:00,17.5,11.4,30.17,NNE,23,6.5,10.1,77,0.00,,,0.00,WUHU216HW,2014-01-01 15:57:00,
2014-01-01 10:02:00,17.5,11.7,30.17,NE,45,3.1,10.1,78,0.00,,,0.00,WUHU216HW,2014-01-01 16:02:00,
2014-01-01 10:07:00,17.6,11.9,30.17,NNE,23,4.7,7.6,78,0.00,,,0.00,WUHU216HW,2014-01-01 16:07:00,
2014-01-01 10:12:00,17.6,11.5,30.17,NNE,23,7.2,9.4,77,0.00,,,0.00,WUHU216HW,2014-01-01 16:12:00,
2014-01-01 10:17:00,18.0,11.9,30.17,ENE,68,6.7,9.4,77,0.00,,,0.00,WUHU216HW,2014-01-01 16:17:00,
2014-01-01 10:22:00,18.4,12.2,30.17,ESE,113,5.4,10.5,77,0.00,,,0.00,WUHU216HW,2014-01-01 16:22:00,
2014-01-01 10:27:00,18.4,12.0,30.17,ENE,68,4.3,10.5,76,0.00,,,0.00,WUHU216HW,2014-01-01 16:27:00,
2014-01-01 10:37:00,18.7,12.3,30.17,NNE,23,9.8,10.3,76,0.00,,,0.00,WUHU216HW,2014-01-01 16:37:00,
2014-01-01 10:42:00,18.9,12.2,30.17,NNE,23,6.5,10.5,75,0.00,,,0.00,WUHU216HW,2014-01-01 16:42:00,
2014-01-01 10:47:00,18.7,12.0,30.17,North,0,9.2,10.5,75,0.00,,,0.00,WUHU216HW,2014-01-01 16:47:00,
2014-01-01 10:52:00,18.7,12.0,30.17,NNE,23,9.4,9.4,75,0.00,,,0.00,WUHU216HW,2014-01-01 16:52:00,
2014-01-01 10:57:00,18.7,12.0,30.17,NNE,23,9.4,9.4,75,0.00,,,0.00,WUHU216HW,2014-01-01 16:57:00,
2014-01-01 11:02:00,18.9,12.2,30.17,ENE,68,4.9,4.9,75,0.00,,,0.00,WUHU216HW,2014-01-01 17:02:00,
2014-01-01 11:07:00,18.9,12.2,30.17,ENE,68,4.9,4.9,75,0.00,,,0.00,WUHU216HW,2014-01-01 17:07:00,
2014-01-01 11:30:00,20.9,13.5,30.17,ENE,68,5.4,5.4,73,0.00,,,0.00,WUHU216HW,2014-01-01 17:30:00,
2014-01-01 11:35:00,20.9,13.5,30.17,ENE,68,5.4,5.4,73,0.00,,,0.00,WUHU216HW,2014-01-01 17:35:00,
2014-01-01 12:00:00,20.5,12.9,30.16,NNW,338,4.7,4.7,72,0.00,,,0.00,WUHU216HW,2014-01-01 18:00:00,
2014-01-01 12:13:00,20.5,13.1,30.16,NNE,23,7.8,7.8,73,0.00,,,0.00,WUHU216HW,2014-01-01 18:13:00,
2014-01-01 12:18:00,20.5,13.1,30.15,NE,45,8.9,8.9,73,0.00,,,0.00,WUHU216HW,2014-01-01 18:18:00,
2014-01-01 12:23:00,20.7,13.1,30.15,NNE,23,4.7,8.9,72,0.00,,,0.00,WUHU216HW,2014-01-01 18:23:00,
2014-01-01 12:28:00,20.5,12.9,30.14,NE,45,6.3,9.2,72,0.00,,,0.00,WUHU216HW,2014-01-01 18:28:00,
2014-01-01 12:33:00,20.5,12.9,30.13,NNE,23,10.7,11.6,72,0.00,,,0.00,WUHU216HW,2014-01-01 18:33:00,
2014-01-01 12:38:00,20.5,12.9,30.13,NNE,23,7.8,12.3,72,0.00,,,0.00,WUHU216HW,2014-01-01 18:38:00,
2014-01-01 12:43:00,20.3,12.7,30.13,NNE,23,6.0,12.3,72,0.00,,,0.00,WUHU216HW,2014-01-01 18:43:00,
2014-01-01 12:48:00,20.5,12.9,30.13,NNE,23,10.7,14.8,72,0.00,,,0.00,WUHU216HW,2014-01-01 18:48:00,
2014-01-01 12:53:00,20.5,12.9,30.14,ENE,68,9.2,14.8,72,0.00,,,0.00,WUHU216HW,2014-01-01 18:53:00,
2014-01-01 12:58:00,20.5,12.9,30.14,NE,45,10.7,13.9,72,0.00,,,0.00,WUHU216HW,2014-01-01 18:58:00,
2014-01-01 13:03:00,20.5,12.9,30.14,East,90,7.4,12.5,72,0.00,,,0.00,WUHU216HW,2014-01-01 19:03:00,
2014-01-01 13:08:00,20.7,13.1,30.13,NE,45,9.8,13.0,72,0.00,,,0.00,WUHU216HW,2014-01-01 19:08:00,
2014-01-01 13:13:00,20.7,12.7,30.13,NE,45,6.9,13.0,71,0.00,,,0.00,WUHU216HW,2014-01-01 19:13:00,
2014-01-01 13:18:00,20.5,12.5,30.13,NNE,23,4.0,12.3,71,0.00,,,0.00,WUHU216HW,2014-01-01 19:18:00,
2014-01-01 13:23:00,20.7,12.7,30.13,North,0,7.6,11.2,71,0.00,,,0.00,WUHU216HW,2014-01-01 19:23:00,
2014-01-01 13:28:00,20.7,12.7,30.13,ENE,68,14.3,14.3,71,0.00,,,0.00,WUHU216HW,2014-01-01 19:28:00,
2014-01-01 13:33:00,20.7,12.7,30.13,NNE,23,8.9,14.3,71,0.00,,,0.00,WUHU216HW,2014-01-01 19:33:00,
2014-01-01 13:43:00,20.5,12.5,30.13,SE,135,4.3,14.3,71,0.00,,,0.00,WUHU216HW,2014-01-01 19:43:00,
2014-01-01 13:48:00,20.5,12.5,30.13,ENE,68,10.5,12.1,71,0.00,,,0.00,WUHU216HW,2014-01-01 19:48:00,
2014-01-01 13:53:00,20.5,12.5,30.12,NNE,23,8.9,13.0,71,0.00,,,0.00,WUHU216HW,2014-01-01 19:53:00,
2014-01-01 13:58:00,20.2,12.2,30.13,NE,45,10.7,13.0,71,0.00,,,0.00,WUHU216HW,2014-01-01 19:58:00,
2014-01-01 14:03:00,20.2,12.2,30.13,NE,45,11.4,11.4,71,0.00,,,0.00,WUHU216HW,2014-01-01 20:03:00,
2014-01-01 14:08:00,20.0,12.0,30.13,NE,45,9.8,11.4,71,0.00,,,0.00,WUHU216HW,2014-01-01 20:08:00,
2014-01-01 14:13:00,19.8,11.8,30.13,North,0,8.3,11.4,71,0.00,,,0.00,WUHU216HW,2014-01-01 20:13:00,
2014-01-01 14:18:00,19.8,11.8,30.13,NNE,23,13.4,13.4,71,0.00,,,0.00,WUHU216HW,2014-01-01 20:18:00,
2014-01-01 14:23:00,19.8,11.8,30.13,North,0,10.1,13.4,71,0.00,,,0.00,WUHU216HW,2014-01-01 20:23:00,
2014-01-01 14:28:00,19.6,11.6,30.13,NNE,23,8.5,12.3,71,0.00,,,0.00,WUHU216HW,2014-01-01 20:28:00,
2014-01-01 14:33:00,19.3,11.4,30.14,NNE,23,11.6,12.3,71,0.00,,,0.00,WUHU216HW,2014-01-01 20:33:00,
2014-01-01 14:38:00,19.1,11.4,30.14,NNE,23,9.2,12.5,72,0.00,,,0.00,WUHU216HW,2014-01-01 20:38:00,
2014-01-01 14:43:00,18.9,11.3,30.15,NNE,23,4.7,12.5,72,0.00,,,0.00,WUHU216HW,2014-01-01 20:43:00,
2014-01-01 14:48:00,18.7,11.1,30.15,NE,45,10.1,15.7,72,0.00,,,0.00,WUHU216HW,2014-01-01 20:48:00,
2014-01-01 14:53:00,18.4,10.4,30.15,North,0,7.4,15.7,71,0.00,,,0.00,WUHU216HW,2014-01-01 20:53:00,
2014-01-01 14:58:00,18.0,10.2,30.16,NNE,23,9.2,14.3,71,0.00,,,0.00,WUHU216HW,2014-01-01 20:58:00,
2014-01-01 15:03:00,17.6,10.1,30.16,NNE,23,9.6,14.3,72,0.00,,,0.00,WUHU216HW,2014-01-01 21:03:00,
2014-01-01 15:08:00,17.5,10.3,30.16,North,0,9.8,14.3,73,0.00,,,0.00,WUHU216HW,2014-01-01 21:08:00,
2014-01-01 15:13:00,17.1,10.2,30.16,NE,45,7.6,14.3,74,0.00,,,0.00,WUHU216HW,2014-01-01 21:13:00,
2014-01-01 15:23:00,16.9,10.6,30.16,NW,315,8.5,11.6,76,0.00,,,0.00,WUHU216HW,2014-01-01 21:23:00,
2014-01-01 15:28:00,16.2,10.5,30.17,NNE,23,10.5,12.1,78,0.00,,,0.00,WUHU216HW,2014-01-01 21:28:00,
2014-01-01 15:33:00,16.0,10.4,30.17,North,0,10.1,12.1,78,0.00,,,0.00,WUHU216HW,2014-01-01 21:33:00,
2014-01-01 15:38:00,15.8,10.5,30.17,North,0,9.8,12.8,79,0.00,,,0.00,WUHU216HW,2014-01-01 21:38:00,
2014-01-01 15:43:00,15.7,10.4,30.17,NNE,23,4.7,12.8,79,0.00,,,0.00,WUHU216HW,2014-01-01 21:43:00,
2014-01-01 15:48:00,15.5,10.2,30.17,North,0,5.6,10.5,79,0.00,,,0.00,WUHU216HW,2014-01-01 21:48:00,
2014-01-01 15:53:00,15.3,10.0,30.17,NNE,23,5.4,9.8,79,0.00,,,0.00,WUHU216HW,2014-01-01 21:53:00,
2014-01-01 15:58:00,15.1,10.1,30.17,NE,45,7.8,12.3,80,0.00,,,0.00,WUHU216HW,2014-01-01 21:58:00,
2014-01-01 16:03:00,14.9,10.2,30.17,NNE,23,7.6,12.3,81,0.00,,,0.00,WUHU216HW,2014-01-01 22:03:00,
2014-01-01 16:08:00,14.8,10.0,30.17,NNW,338,6.3,12.1,81,0.00,,,0.00,WUHU216HW,2014-01-01 22:08:00,
2014-01-01 16:13:00,14.8,10.0,30.17,NNE,23,6.3,12.1,81,0.00,,,0.00,WUHU216HW,2014-01-01 22:13:00,
2014-01-01 16:18:00,14.8,10.3,30.17,NNE,23,4.9,7.8,82,0.00,,,0.00,WUHU216HW,2014-01-01 22:18:00,
2014-01-01 16:23:00,14.4,9.9,30.17,North,0,7.6,8.5,82,0.00,,,0.00,WUHU216HW,2014-01-01 22:23:00,
2014-01-01 16:28:00,14.2,9.7,30.17,NNE,23,6.5,8.5,82,0.00,,,0.00,WUHU216HW,2014-01-01 22:28:00,
2014-01-01 16:33:00,14.0,9.5,30.17,NNE,23,9.8,11.9,82,0.00,,,0.00,WUHU216HW,2014-01-01 22:33:00,
2014-01-01 16:38:00,13.9,9.6,30.17,North,0,5.4,11.9,83,0.00,,,0.00,WUHU216HW,2014-01-01 22:38:00,
2014-01-01 16:43:00,13.7,9.5,30.18,NNE,23,7.4,10.5,83,0.00,,,0.00,WUHU216HW,2014-01-01 22:43:00,
2014-01-01 16:48:00,13.3,9.1,30.18,East,90,6.0,14.3,83,0.00,,,0.00,WUHU216HW,2014-01-01 22:48:00,
2014-01-01 16:53:00,13.3,9.4,30.18,NNW,338,3.1,14.3,84,0.00,,,0.00,WUHU216HW,2014-01-01 22:53:00,
2014-01-01 16:58:00,13.3,9.4,30.18,NNW,338,3.1,14.3,84,0.00,,,0.00,WUHU216HW,2014-01-01 22:58:00,
2014-01-01 17:03:00,13.3,9.4,30.19,North,0,7.4,8.7,84,0.00,,,0.00,WUHU216HW,2014-01-01 23:03:00,
2014-01-01 17:08:00,13.0,8.5,30.19,NNW,338,9.8,9.8,82,0.00,,,0.00,WUHU216HW,2014-01-01 23:08:00,
2014-01-01 17:13:00,12.6,8.1,30.19,NNE,23,6.3,11.6,82,0.00,,,0.00,WUHU216HW,2014-01-01 23:13:00,
2014-01-01 17:18:00,12.6,8.1,30.20,North,0,6.3,15.4,82,0.00,,,0.00,WUHU216HW,2014-01-01 23:18:00,
2014-01-01 17:23:00,12.6,8.1,30.20,NNE,23,7.2,15.4,82,0.00,,,0.00,WUHU216HW,2014-01-01 23:23:00,
2014-01-01 17:28:00,12.6,8.1,30.20,NNE,23,5.1,8.5,82,0.00,,,0.00,WUHU216HW,2014-01-01 23:28:00,
2014-01-01 17:33:00,12.6,8.1,30.21,ESE,113,1.8,7.6,82,0.00,,,0.00,WUHU216HW,2014-01-01 23:33:00,
2014-01-01 17:38:00,12.6,8.4,30.21,NNE,23,4.7,10.1,83,0.00,,,0.00,WUHU216HW,2014-01-01 23:38:00,
2014-01-01 17:43:00,12.6,8.1,30.22,North,0,7.6,10.1,82,0.00,,,0.00,WUHU216HW,2014-01-01 23:43:00,
2014-01-01 17:48:00,12.2,7.5,30.22,North,0,7.4,10.5,81,0.00,,,0.00,WUHU216HW,2014-01-01 23:48:00,
2014-01-01 17:53:00,12.1,7.3,30.23,NNE,23,8.1,10.5,81,0.00,,,0.00,WUHU216HW,2014-01-01 23:53:00,
2014-01-01 17:58:00,12.1,7.3,30.23,NE,45,11.2,11.2,81,0.00,,,0.00,WUHU216HW,2014-01-01 23:58:00,
2014-01-01 18:08:00,12.1,7.6,30.23,NNE,23,2.0,11.2,82,0.00,,,0.00,WUHU216HW,2014-01-02 00:08:00,
2014-01-01 18:13:00,12.1,7.6,30.24,North,0,8.5,11.4,82,0.00,,,0.00,WUHU216HW,2014-01-02 00:13:00,
2014-01-01 18:18:00,11.9,7.1,30.24,North,0,1.8,11.4,81,0.00,,,0.00,WUHU216HW,2014-01-02 00:18:00,
2014-01-01 18:23:00,11.9,7.4,30.25,NNW,338,2.0,5.8,82,0.00,,,0.00,WUHU216HW,2014-01-02 00:23:00,
2014-01-01 18:28:00,11.9,7.4,30.25,NNW,338,4.0,5.8,82,0.00,,,0.00,WUHU216HW,2014-01-02 00:28:00,
2014-01-01 18:33:00,11.9,7.1,30.25,NNE,23,2.5,7.6,81,0.00,,,0.00,WUHU216HW,2014-01-02 00:33:00,
2014-01-01 18:38:00,11.7,6.9,30.25,North,0,4.0,7.6,81,0.00,,,0.00,WUHU216HW,2014-01-02 00:38:00,
2014-01-01 18:43:00,11.7,6.9,30.26,NNE,23,5.1,6.0,81,0.00,,,0.00,WUHU216HW,2014-01-02 00:43:00,
2014-01-01 18:48:00,11.5,6.8,30.26,NNE,23,6.9,6.9,81,0.00,,,0.00,WUHU216HW,2014-01-02 00:48:00,
2014-01-01 18:53:00,11.5,6.8,30.26,NNW,338,6.3,6.9,81,0.00,,,0.00,WUHU216HW,2014-01-02 00:53:00,
2014-01-01 18:58:00,11.5,7.0,30.26,NNE,23,9.6,10.5,82,0.00,,,0.00,WUHU216HW,2014-01-02 00:58:00,
2014-01-01 19:03:00,11.5,7.0,30.26,NNE,23,2.9,10.5,82,0.00,,,0.00,WUHU216HW,2014-01-02 01:03:00,
2014-01-01 19:08:00,11.3,6.8,30.27,NNE,23,4.0,8.5,82,0.00,,,0.00,WUHU216HW,2014-01-02 01:08:00,
2014-01-01 19:13:00,11.5,6.8,30.27,NE,45,4.7,8.5,81,0.00,,,0.00,WUHU216HW,2014-01-02 01:13:00,
2014-01-01 19:18:00,11.7,6.9,30.27,NNE,23,6.3,6.7,81,0.00,,,0.00,WUHU216HW,2014-01-02 01:18:00,
2014-01-01 19:23:00,11.7,7.2,30.27,NNW,338,3.8,6.7,82,0.00,,,0.00,WUHU216HW,2014-01-02 01:23:00,
2014-01-01 19:28:00,11.5,6.8,30.28,NNW,338,4.9,5.4,81,0.00,,,0.00,WUHU216HW,2014-01-02 01:28:00,
2014-01-01 19:33:00,11.7,7.2,30.28,NNW,338,3.8,4.9,82,0.00,,,0.00,WUHU216HW,2014-01-02 01:33:00,
2014-01-01 19:38:00,11.7,7.2,30.28,North,0,4.0,6.9,82,0.00,,,0.00,WUHU216HW,2014-01-02 01:38:00,
2014-01-01 19:43:00,11.7,7.2,30.28,NW,315,3.8,7.6,82,0.00,,,0.00,WUHU216HW,2014-01-02 01:43:00,
2014-01-01 19:48:00,11.7,6.9,30.28,NNW,338,4.0,7.6,81,0.00,,,0.00,WUHU216HW,2014-01-02 01:48:00,
2014-01-01 19:53:00,11.5,6.8,30.28,North,0,6.5,8.7,81,0.00,,,0.00,WUHU216HW,2014-01-02 01:53:00,
2014-01-01 19:58:00,11.5,6.8,30.29,NNW,338,7.4,8.7,81,0.00,,,0.00,WUHU216HW,2014-01-02 01:58:00,
2014-01-01 20:03:00,11.3,6.6,30.29,NNW,338,4.3,8.7,81,0.00,,,0.00,WUHU216HW,2014-01-02 02:03:00,
2014-01-01 20:08:00,11.5,6.8,30.29,NNW,338,5.1,6.3,81,0.00,,,0.00,WUHU216HW,2014-01-02 02:08:00,
2014-01-01 20:13:00,11.7,6.9,30.29,ENE,68,4.0,6.3,81,0.00,,,0.00,WUHU216HW,2014-01-02 02:13:00,
2014-01-01 20:18:00,11.7,6.9,30.29,NNW,338,5.4,6.7,81,0.00,,,0.00,WUHU216HW,2014-01-02 02:18:00,
2014-01-01 20:27:00,11.5,6.8,30.29,NNW,338,2.5,6.7,81,0.00,,,0.00,WUHU216HW,2014-01-02 02:27:00,
2014-01-01 20:32:00,11.5,6.8,30.30,North,0,8.1,8.5,81,0.00,,,0.00,WUHU216HW,2014-01-02 02:32:00,
2014-01-01 20:37:00,11.5,6.2,30.29,NE,45,8.1,12.1,79,0.00,,,0.00,WUHU216HW,2014-01-02 02:37:00,
2014-01-01 20:42:00,11.5,6.2,30.29,North,0,5.6,12.1,79,0.00,,,0.00,WUHU216HW,2014-01-02 02:42:00,
2014-01-01 20:47:00,11.3,5.8,30.29,NNW,338,1.8,6.5,78,0.00,,,0.00,WUHU216HW,2014-01-02 02:47:00,
2014-01-01 20:52:00,11.3,5.8,30.29,North,0,4.5,7.2,78,0.00,,,0.00,WUHU216HW,2014-01-02 02:52:00,
2014-01-01 20:57:00,11.3,5.8,30.29,North,0,4.5,7.2,78,0.00,,,0.00,WUHU216HW,2014-01-02 02:57:00,
2014-01-01 21:02:00,11.2,5.2,30.30,North,0,7.6,7.6,77,0.00,,,0.00,WUHU216HW,2014-01-02 03:02:00,
2014-01-01 21:07:00,11.2,5.2,30.30,North,0,7.6,7.6,77,0.00,,,0.00,WUHU216HW,2014-01-02 03:07:00,
2014-01-01 21:30:00,10.4,4.2,30.31,North,0,3.6,3.6,76,0.00,,,0.00,WUHU216HW,2014-01-02 03:30:00,
2014-01-01 21:35:00,10.4,4.2,30.31,North,0,3.6,3.6,76,0.00,,,0.00,WUHU216HW,2014-01-02 03:35:00,
2014-01-01 21:59:00,9.7,3.3,30.32,NNW,338,8.7,8.7,75,0.00,,,0.00,WUHU216HW,2014-01-02 03:59:00,
2014-01-01 22:04:00,9.7,3.3,30.32,NNW,338,8.7,8.7,75,0.00,,,0.00,WUHU216HW,2014-01-02 04:04:00,
2014-01-01 22:29:00,9.0,2.7,30.33,NNW,338,7.2,7.2,75,0.00,,,0.00,WUHU216HW,2014-01-02 04:29:00,
2014-01-01 22:34:00,8.8,2.5,30.33,North,0,6.3,7.6,75,0.00,,,0.00,WUHU216HW,2014-01-02 04:34:00,
2014-01-01 22:39:00,8.8,2.5,30.33,North,0,6.5,8.9,75,0.00,,,0.00,WUHU216HW,2014-01-02 04:39:00,
2014-01-01 22:44:00,8.6,2.3,30.33,NNW,338,9.4,9.4,75,0.00,,,0.00,WUHU216HW,2014-01-02 04:44:00,
2014-01-01 22:49:00,8.5,2.2,30.32,NNW,338,9.6,10.5,75,0.00,,,0.00,WUHU216HW,2014-01-02 04:49:00,
2014-01-01 22:54:00,8.3,2.3,30.32,NNW,338,9.2,10.5,76,0.00,,,0.00,WUHU216HW,2014-01-02 04:54:00,
2014-01-01 22:59:00,8.3,2.3,30.32,NNW,338,9.2,9.4,76,0.00,,,0.00,WUHU216HW,2014-01-02 04:59:00,
2014-01-01 23:01:00,8.3,2.3,30.32,North,0,7.8,9.4,76,0.00,,,0.00,WUHU216HW,2014-01-02 05:01:00,
2014-01-01 23:02:00,8.3,2.3,30.32,NNW,338,8.3,9.4,76,0.00,,,0.00,WUHU216HW,2014-01-02 05:02:00,
2014-01-01 23:03:00,8.3,2.3,30.32,NNW,338,6.9,9.2,76,0.00,,,0.00,WUHU216HW,2014-01-02 05:03:00,
2014-01-01 23:08:00,8.1,2.1,30.32,North,0,6.9,9.2,76,0.00,,,0.00,WUHU216HW,2014-01-02 05:08:00,
2014-01-01 23:13:00,8.1,1.8,30.32,NNW,338,5.4,8.9,75,0.00,,,0.00,WUHU216HW,2014-01-02 05:13:00,
2014-01-01 23:18:00,7.9,1.6,30.32,North,0,4.0,7.6,75,0.00,,,0.00,WUHU216HW,2014-01-02 05:18:00,
2014-01-01 23:23:00,7.9,1.9,30.32,North,0,6.0,7.6,76,0.00,,,0.00,WUHU216HW,2014-01-02 05:23:00,
2014-01-01 23:28:00,7.7,1.4,30.32,NNW,338,7.6,7.6,75,0.00,,,0.00,WUHU216HW,2014-01-02 05:28:00,
2014-01-01 23:33:00,7.7,1.4,30.31,North,0,9.2,9.4,75,0.00,,,0.00,WUHU216HW,2014-01-02 05:33:00,
2014-01-01 23:38:00,7.6,1.3,30.31,NNW,338,3.6,9.4,75,0.00,,,0.00,WUHU216HW,2014-01-02 05:38:00,
2014-01-01 23:43:00,7.4,1.1,30.31,NNW,338,5.4,8.5,75,0.00,,,0.00,WUHU216HW,2014-01-02 05:43:00,
2014-01-01 23:48:00,7.2,0.9,30.31,NNE,23,4.0,7.6,75,0.00,,,0.00,WUHU216HW,2014-01-02 05:48:00,
2014-01-01 23:53:00,7.2,0.9,30.31,North,0,5.6,7.4,75,0.00,,,0.00,WUHU216HW,2014-01-02 05:53:00,
2014-01-01 23:58:00,7.0,0.7,30.31,North,0,6.3,9.8,75,0.00,,,0.00,WUHU216HW,2014-01-02 05:58:00,